ES'HAIL 1 (39233 NORAD) Tracking and Keplerian Element Data

This shows tracking and keplerian element data for the satellite.

Feedback or suggestion? Click here.




ElementValue
Catalog39233
NameES'HAIL 1
Epoch Orbit2877
Epoch Day212.92220566
Epoch Year2021
RAAN29.9976
Inclination0.0483
Eccentricity0.0001734
Argument of Perigee106.3197
Mean Anonmoly170.916
Mean Motion1.00274787
Decay Rate1.44E-06
L11 39233U 13044A 21212.92220566 .00000144 00000-0 00000-0 0 9991
L22 39233 0.0483 29.9976 0001734 106.3197 170.9160 1.00274787 28775

Live tracking and technical data element details for ES'HAIL 1 (NORAD 39233). ES'HAIL 1 can be tracked NOW for your location showing map with azimuth and elevation plus other details from your city location.

Track the satellite on the map from your city or location and see movement details for azimuth, elevation, latitude, longitude, range, height, and movement on the map or in text.







IsCatalogInMostPopularTable: catalog: 39233, numindb: 1443
Update: records affected: 1



GetName: 39233 ES'HAIL 1

Hit Count: updated at: Mon, 02 Aug 2021 01:30:06 GMT